Other Public Products
Issued by NWS Charleston, SC

Current Version | Previous Version | Text Only | Print | Product List | Glossary On
Versions: 1 2 3 4 5 6 7 8 9 10 11 12 13 14 15 16 17 18 19 20 21 22 23 24 25 26 27 28 29 30 31 32 33 34 35 36 37 38 39 40 41 42 43 44 45 46 47 48 49 50
052 FPUS82 KCHS 232127 OPUCHS TEST...KCHS/KSAV Gateway Observations...TEST National Weather Service Charleston SC 500 PM EDT SUN JUL 23 2017 NOTE: "fair" indicates few or no clouds below 12,000 feet with no significant weather and/or obstructions to visibility. SCZ050-WAZ558-NCZ071-TXZ119-213-PAZ071-DCZ001-FLZ074-172-MI076- NYZ176-178-MAZ016-IL014-TNZ027-NJZ106-GAZ044-MD014-232200- ...Gateway Observations for Charleston International... CITY SKY/WX TMP DP RH WIND PRES REMARKS Chas Airport PTSUNNY 84 74 71 S18G29 29.90S HX 91 Seattle PTSUNNY 72 57 59 W10 30.07F Charlotte TSTM 76 71 85 SE22 29.88R Dallas DFW PTSUNNY 91 68 46 E17G29 29.80F HX 95 Dallas Love PTSUNNY 96 70 42 W10 29.82F THUNDER HX 102 Philladelphia CLOUDY 85 70 60 E8 29.78S Wash National CLOUDY 82 77 84 S6 29.77F HX 90 Baltimore PTSUNNY 80 76 87 SW8 29.76S Miami CLOUDY 89 77 67 SE9 30.02F HX 101 Detroit LGT RAIN 80 69 69 SW6 29.75F Newark CLOUDY 78 66 66 SE10G20 29.82R Laguardia CLOUDY 78 69 73 E9 29.81S J F K CLOUDY 77 70 79 SE13 29.84R Boston Logan CLOUDY 67 53 61 E12 29.90R Ft. Lauderdale CLOUDY 87 75 67 SE13 30.01F HX 96 Chicago O`Hare CLOUDY 86 63 45 N25G32 29.77F THUNDER Chicago Midway PTSUNNY 88 63 43 W10G21 29.76F Houston Bush CLOUDY 85 72 65 SE10 29.89F HX 91 Houston Hobby PTSUNNY 95 73 48 S15 29.89F HX 104 Nashville MOSUNNY 95 73 48 W9 29.84F HX 104 Atlanta PTSUNNY 89 74 60 SW9 29.90F THUNDER HX 98 $$ GAZ044-118-TXZ119-213-NCZ071-DCZ001-MDZ014-506-PAZ021-071-NJZ106- NYZ176-178-MAZ106-OHZ011-021-055-MIZ076-KYZ091-ILZ014-INZ047- MNZ060-ONZ431-232200- ...Gateway Observations for Savannah International... CITY SKY/WX TMP DP RH WIND PRES REMARKS Savannah Arpt PTSUNNY 83 74 74 S13 29.92F Atlanta PTSUNNY 89 74 60 SW9 29.90F THUNDER HX 98 Charlotte TSTM 76 71 85 SE22 29.88R Dallas DFW PTSUNNY 91 68 46 E17G29 29.80F HX 95 Houston Bush CLOUDY 85 72 65 SE10 29.89F HX 91 Wash National CLOUDY 82 77 84 S6 29.77F HX 90 Wash Dulles PTSUNNY 82 73 74 SW8 29.77F Baltimore PTSUNNY 80 76 87 SW8 29.76S Philadelphia CLOUDY 85 70 60 E8 29.78S Newark CLOUDY 78 66 66 SE10G20 29.82R Laguardia CLOUDY 78 69 73 E9 29.81S J F K CLOUDY 77 70 79 SE13 29.84R Boston CLOUDY 67 53 61 E12 29.90R Pittsburg CLOUDY 76 71 85 SW9 29.78F Akron CLOUDY 83 67 58 NW3 29.75F Cleveland CLOUDY 81 69 67 N8 29.77F Cincinnati MOSUNNY 84 70 62 SW12 29.81F Columbus PTSUNNY 79 72 78 SW9 29.79S Detroit LGT RAIN 80 69 69 SW6 29.75F Chicago O`Hare CLOUDY 86 63 45 N25G32 29.77F THUNDER Minneapolis PTSUNNY 78 59 51 N15G23 29.94S Indianapolis CLOUDY 76 68 76 SW10 29.82R Toronto Canada PTSUNNY 73 63 68 E13G18 29.76F $$

USA.gov is the U.S. government's official web portal to all federal, state and local government web resources and services.